TimeCST,TemperatureF,Dew PointF,Humidity,Sea Level PressureIn,VisibilityMPH,Wind Direction,Wind SpeedMPH,Gust SpeedMPH,PrecipitationIn,Events,Conditions,WindDirDegrees,DateUTC
12:13 AM,19.4,15.8,86,29.80,10.0,NNW,15.0,-,N/A,,Overcast,330,2013-01-30 06:13:00
12:34 AM,17.6,14.0,86,29.79,10.0,NNW,15.0,-,N/A,,Overcast,330,2013-01-30 06:34:00
12:53 AM,17.6,14.0,86,29.77,10.0,NNW,20.7,-,N/A,,Overcast,330,2013-01-30 06:53:00
1:13 AM,17.6,12.2,79,29.78,10.0,NNW,15.0,-,N/A,,Overcast,330,2013-01-30 07:13:00
1:34 AM,15.8,12.2,86,29.77,10.0,NNW,15.0,27.6,N/A,,Overcast,340,2013-01-30 07:34:00
1:53 AM,15.8,10.4,79,29.77,10.0,NNW,17.3,-,N/A,,Overcast,330,2013-01-30 07:53:00
2:13 AM,14.0,10.4,86,29.76,10.0,NNW,17.3,-,N/A,,Overcast,330,2013-01-30 08:13:00
2:34 AM,14.0,10.4,86,29.76,10.0,NNW,18.4,21.9,N/A,,Overcast,330,2013-01-30 08:34:00
2:53 AM,12.2,10.4,92,29.76,10.0,NW,16.1,23.0,N/A,,Overcast,320,2013-01-30 08:53:00
3:13 AM,12.2,8.6,85,29.77,10.0,NW,17.3,-,N/A,,Overcast,320,2013-01-30 09:13:00
3:34 AM,12.2,8.6,85,29.77,10.0,NW,17.3,-,N/A,,Overcast,320,2013-01-30 09:34:00
3:53 AM,12.2,8.6,85,29.78,10.0,NNW,20.7,24.2,N/A,,Overcast,330,2013-01-30 09:53:00
4:13 AM,12.2,8.6,85,29.77,10.0,NW,18.4,-,N/A,,Overcast,320,2013-01-30 10:13:00
4:34 AM,12.2,8.6,85,29.76,10.0,NW,19.6,25.3,N/A,,Overcast,320,2013-01-30 10:34:00
4:53 AM,10.4,6.8,85,29.76,10.0,NW,20.7,-,N/A,,Overcast,320,2013-01-30 10:53:00
5:13 AM,10.4,6.8,85,29.76,10.0,NW,21.9,-,N/A,,Overcast,320,2013-01-30 11:13:00
5:34 AM,10.4,6.8,85,29.75,10.0,NW,17.3,-,N/A,,Overcast,320,2013-01-30 11:34:00
5:53 AM,10.4,6.8,85,29.75,10.0,NW,17.3,-,N/A,,Overcast,320,2013-01-30 11:53:00
6:13 AM,10.4,6.8,85,29.75,10.0,NW,19.6,24.2,N/A,,Overcast,320,2013-01-30 12:13:00
6:33 AM,10.4,6.8,85,29.75,10.0,NW,17.3,-,N/A,,Overcast,320,2013-01-30 12:33:00
6:54 AM,10.4,6.8,85,29.75,10.0,NW,21.9,25.3,N/A,,Overcast,320,2013-01-30 12:54:00
7:13 AM,10.4,5.0,79,29.75,10.0,NW,16.1,-,N/A,,Overcast,320,2013-01-30 13:13:00
7:33 AM,8.6,5.0,85,29.75,10.0,NNW,16.1,-,N/A,,Overcast,330,2013-01-30 13:33:00
7:54 AM,8.6,3.2,79,29.75,10.0,NNW,18.4,23.0,N/A,,Overcast,330,2013-01-30 13:54:00
8:13 AM,8.6,5.0,85,29.75,10.0,NW,13.8,-,N/A,,Overcast,320,2013-01-30 14:13:00
8:33 AM,8.6,3.2,79,29.75,10.0,NW,18.4,24.2,N/A,,Overcast,310,2013-01-30 14:33:00
8:54 AM,8.6,3.2,79,29.75,10.0,NW,17.3,25.3,N/A,,Overcast,320,2013-01-30 14:54:00
9:13 AM,8.6,3.2,79,29.75,10.0,NW,18.4,-,N/A,,Overcast,320,2013-01-30 15:13:00
9:33 AM,8.6,3.2,79,29.75,10.0,NW,18.4,-,N/A,,Overcast,320,2013-01-30 15:33:00
9:54 AM,8.6,3.2,79,29.76,10.0,NW,17.3,20.7,N/A,,Overcast,310,2013-01-30 15:54:00
10:13 AM,8.6,5.0,85,29.76,10.0,NW,16.1,23.0,N/A,,Overcast,310,2013-01-30 16:13:00
10:33 AM,8.6,3.2,79,29.76,10.0,NW,16.1,25.3,N/A,,Overcast,310,2013-01-30 16:33:00
10:54 AM,10.4,5.0,79,29.77,10.0,NW,16.1,-,N/A,,Overcast,310,2013-01-30 16:54:00
11:13 AM,10.4,5.0,79,29.77,10.0,NW,12.7,-,N/A,,Overcast,320,2013-01-30 17:13:00
11:33 AM,10.4,5.0,79,29.77,10.0,NNW,15.0,-,N/A,,Overcast,330,2013-01-30 17:33:00
11:54 AM,10.4,6.8,85,29.76,10.0,NW,16.1,-,N/A,,Overcast,320,2013-01-30 17:54:00
12:13 PM,12.2,6.8,79,29.75,10.0,NW,13.8,-,N/A,,Overcast,310,2013-01-30 18:13:00
12:33 PM,10.4,6.8,85,29.74,7.0,WNW,20.7,-,N/A,,Overcast,300,2013-01-30 18:33:00
12:54 PM,10.4,6.8,85,29.74,4.0,WNW,19.6,-,N/A,,Haze,290,2013-01-30 18:54:00
1:13 PM,10.4,5.0,79,29.74,3.0,WNW,24.2,-,N/A,,Haze,300,2013-01-30 19:13:00
1:33 PM,10.4,5.0,79,29.73,5.0,WNW,23.0,27.6,N/A,,Haze,300,2013-01-30 19:33:00
1:54 PM,10.4,5.0,79,29.73,7.0,NW,18.4,-,N/A,,Overcast,310,2013-01-30 19:54:00
2:13 PM,10.4,5.0,79,29.73,5.0,NW,20.7,28.8,N/A,,Haze,310,2013-01-30 20:13:00
2:33 PM,10.4,5.0,79,29.72,4.0,NW,24.2,29.9,N/A,,Haze,310,2013-01-30 20:33:00
2:54 PM,10.4,5.0,79,29.73,5.0,NW,20.7,-,N/A,,Haze,310,2013-01-30 20:54:00
3:13 PM,10.4,5.0,79,29.73,5.0,WNW,24.2,28.8,N/A,,Haze,300,2013-01-30 21:13:00
3:33 PM,10.4,5.0,79,29.73,3.0,NW,23.0,28.8,N/A,,Haze,310,2013-01-30 21:33:00
3:54 PM,8.6,3.2,79,29.73,4.0,NW,26.5,-,N/A,,Haze,310,2013-01-30 21:54:00
4:13 PM,8.6,3.2,79,29.74,4.0,NW,18.4,28.8,N/A,,Haze,310,2013-01-30 22:13:00
4:33 PM,8.6,3.2,79,29.74,5.0,NW,21.9,27.6,N/A,,Haze,310,2013-01-30 22:33:00
4:54 PM,8.6,3.2,79,29.75,1.5,WNW,20.7,26.5,N/A,Snow,Light Snow,300,2013-01-30 22:54:00
5:13 PM,6.8,3.2,85,29.75,2.0,WNW,20.7,25.3,N/A,,Overcast,300,2013-01-30 23:13:00
5:33 PM,6.8,1.4,79,29.75,5.0,WNW,21.9,-,N/A,,Overcast,300,2013-01-30 23:33:00
5:54 PM,6.8,1.4,79,29.75,10.0,WNW,19.6,27.6,N/A,,Mostly Cloudy,300,2013-01-30 23:54:00
6:13 PM,6.8,1.4,79,29.75,10.0,WNW,17.3,26.5,N/A,,Scattered Clouds,290,2013-01-31 00:13:00
6:33 PM,5.0,1.4,85,29.75,5.0,WNW,16.1,-,N/A,,Mostly Cloudy,300,2013-01-31 00:33:00
6:54 PM,5.0,1.4,85,29.75,5.0,WNW,18.4,-,N/A,,Overcast,300,2013-01-31 00:54:00
7:13 PM,5.0,1.4,85,29.75,5.0,WNW,18.4,-,N/A,,Overcast,300,2013-01-31 01:13:00
7:33 PM,3.2,1.4,92,29.76,2.0,WNW,21.9,-,N/A,,Overcast,290,2013-01-31 01:33:00
7:54 PM,3.2,-0.4,85,29.76,2.5,WNW,21.9,-,N/A,,Overcast,290,2013-01-31 01:54:00
8:13 PM,3.2,-0.4,85,29.76,4.0,WNW,20.7,27.6,N/A,,Overcast,290,2013-01-31 02:13:00
8:34 PM,1.4,-2.2,85,29.76,5.0,WNW,23.0,-,N/A,,Overcast,300,2013-01-31 02:34:00
8:53 PM,1.4,-2.2,85,29.77,5.0,WNW,20.7,-,N/A,,Overcast,300,2013-01-31 02:53:00
9:13 PM,1.4,-2.2,85,29.76,5.0,WNW,20.7,26.5,N/A,,Overcast,300,2013-01-31 03:13:00
9:34 PM,1.4,-2.2,85,29.77,7.0,WNW,18.4,-,N/A,,Overcast,300,2013-01-31 03:34:00
9:53 PM,1.4,-2.2,85,29.77,7.0,WNW,16.1,-,N/A,,Overcast,300,2013-01-31 03:53:00
10:13 PM,1.4,-2.2,85,29.78,7.0,WNW,18.4,-,N/A,,Overcast,290,2013-01-31 04:13:00
10:34 PM,1.4,-4.0,78,29.78,5.0,WNW,17.3,-,N/A,,Haze,300,2013-01-31 04:34:00
10:53 PM,-0.4,-4.0,85,29.78,7.0,WNW,18.4,-,N/A,,Overcast,290,2013-01-31 04:53:00
11:13 PM,-0.4,-5.8,78,29.78,10.0,WNW,19.6,-,N/A,,Overcast,290,2013-01-31 05:13:00
11:34 PM,-2.2,-5.8,85,29.78,7.0,WNW,19.6,25.3,N/A,,Overcast,290,2013-01-31 05:34:00